Simultaneous Nadir Overpasses (SNOs) Predictions

Prediction of SNOs between AQUA and NOAA-19 Satellite Orbit:

Table of predicted SNOs for the next 14.0 days since TLE Epoch: 10/8/2022
Index Date (AQUA) Time (AQUA) Lat,Lon (AQUA) SZA (AQUA ) Date (NOAA-19) Time (NOAA-19) Lat,Lon (NOAA-19) SZA (NOAA-19 ) Distance(km) Time Diff (sec)
1 10/09/2022 05:29:43 -77.20, -96.59 96.38 10/09/2022 05:29:34 -77.23, -96.61 96.35 3.38 9
2 10/11/2022 11:02:46 77.21, 0.12 84.47 10/11/2022 11:02:28 77.21, 0.14 84.47 0.37 18
3 10/11/2022 11:52:12 -77.24, 167.63 95.48 10/11/2022 11:53:23 -77.25, 167.61 95.49 0.99 71
4 10/13/2022 16:35:46 -77.17, 97.01 94.74 10/13/2022 16:35:14 -77.19, 96.97 94.72 2.50 32
5 10/13/2022 17:25:14 77.24, -95.62 85.35 10/13/2022 17:26:17 77.23, -95.62 85.33 1.34 63
6 10/15/2022 22:08:47 77.17,-166.20 86.07 10/15/2022 22:08:08 77.18,-166.25 86.09 1.81 39
7 10/15/2022 22:58:14 -77.25, 1.13 93.83 10/15/2022 22:59:02 -77.24, 1.32 93.85 4.59 48
8 10/18/2022 03:41:46 -77.16, -69.40 93.13 10/18/2022 03:40:53 -77.18, -69.38 93.10 2.08 53
9 10/18/2022 04:31:14 77.23, 97.95 86.97 10/18/2022 04:31:56 77.23, 98.10 86.96 3.71 42
10 10/20/2022 09:14:45 77.14, 27.45 87.65 10/20/2022 09:13:47 77.16, 27.39 87.68 2.85 58



Historial Predications of SNOs between AQUA and NOAA-19
